Station OBLA1 - 8737048 - Mobile State Docks, AL Image indicating link to RSS feed of recent meteorological observations for station OBLA1


Conditions at OBLA1 as of
(12:18 pm CDT)
1718 GMT on 05/25/2024:
     

Click on the graph icon in the table below to see a time series plot of the last five days of that observation.

5-day plot - Atmospheric Pressure Atmospheric Pressure (PRES):29.97 in
5-day plot - Air Temperature Air Temperature (ATMP): 82.6 °F
5-day plot - Water Temperature Water Temperature (WTMP): 79.5 °F
NOS Water Level Observation Network Water Level
Previous observations
TIME
(CDT)
5-day plot - Wind Direction
WDIR
 
5-day plot - Wind Speed
WSPD
kts
5-day plot - Wind Gust
GST
kts
5-day plot - Wave Height
WVHT
ft
5-day plot - Dominant Wave Period
DPD
sec
5-day plot - Average Wave Period
APD
sec
5-day plot - Mean Wave Direction
MWD
 
5-day plot - Atmospheric Pressure
PRES
in
5-day plot - Pressure Tendency
PTDY
in
5-day plot - Air Temperature
ATMP
°F
5-day plot - Water Temperature
WTMP
°F
5-day plot - Dew Point
DEWP
°F
5-day plot - Salinity
SAL
psu
5-day plot - Visibility
VIS
nmi
5-day plot - Tide (above MLLW)
TIDE
ft
2024-05-25 12:12 pm-------29.97- 82.9 79.5----
2024-05-25 12:06 pm-------29.98- 82.8 79.5----
2024-05-25 12:00 pm-------29.97+0.01 82.9 79.5----
2024-05-25 11:54 am-------29.97- 82.6 79.5----
2024-05-25 11:48 am-------29.98- 82.8 79.5----
2024-05-25 11:42 am-------29.98- 82.9 79.5----
2024-05-25 11:36 am-------29.98- 82.9 79.5----
2024-05-25 11:30 am-------29.98- 82.9 79.3----
2024-05-25 11:24 am-------29.98- 82.6 79.0----
2024-05-25 11:18 am-------29.98- 82.8 79.0----
2024-05-25 11:12 am-------29.98- 82.9 78.8----
2024-05-25 11:06 am-------29.98- 83.1 78.8----
2024-05-25 11:00 am-------29.98+0.02 82.9 78.8----
2024-05-25 10:54 am-------29.98- 82.8 78.8----
2024-05-25 10:48 am-------29.98-- 78.8----
2024-05-25 10:42 am-------29.98-- 78.8----
2024-05-25 10:36 am-------29.98-- 78.6----
2024-05-25 10:30 am-------29.98- 83.8 78.6----
2024-05-25 10:24 am-------29.98- 84.0 78.6----
2024-05-25 10:18 am-------29.98- 83.5 78.6----
2024-05-25 10:12 am-------29.97- 83.3 78.6----
2024-05-25 10:06 am-------29.97- 84.9 78.6----
2024-05-25 10:00 am-------29.97+0.01 84.6 78.6----
2024-05-25 09:54 am-------29.97- 84.7 78.6----
2024-05-25 09:48 am-------29.96- 85.3 78.6----
2024-05-25 09:42 am-------29.96- 85.1 78.6----
2024-05-25 09:36 am-------29.96- 84.6 78.6----
2024-05-25 09:30 am-------29.96- 84.9 78.6----
2024-05-25 09:24 am-------29.96- 84.0 78.6----
2024-05-25 09:18 am-------29.96- 83.8 78.6----
2024-05-25 09:12 am-------29.96- 84.2 78.6----
2024-05-25 09:06 am-------29.96- 84.4 78.6----
2024-05-25 09:00 am-------29.96+0.03- 78.6----
2024-05-25 08:54 am-------29.96-- 78.6----
2024-05-25 08:48 am-------29.96-- 78.6----
2024-05-25 08:42 am-------29.96-- 78.6----
2024-05-25 08:36 am-------29.96-- 78.6----
2024-05-25 08:30 am-------29.96- 82.4 78.6----
2024-05-25 08:24 am-------29.96- 82.9 78.6----
2024-05-25 08:18 am-------29.96- 82.9 78.6----
2024-05-25 08:12 am-------29.96- 83.5 78.6----
2024-05-25 08:06 am-------29.96- 82.4 78.6----
2024-05-25 08:00 am-------29.97+0.05 82.4 78.6----
2024-05-25 07:54 am-------29.97- 82.2 78.6----
2024-05-25 07:48 am-------29.97-- 78.6----
2024-05-25 07:42 am-------29.96-- 78.6----
2024-05-25 07:36 am-------29.96-- 78.6----
2024-05-25 07:30 am-------29.97- 82.2 78.6----
2024-05-25 07:24 am-------29.96- 82.9 78.6----
2024-05-25 07:18 am-------29.96- 82.4 78.6----
2024-05-25 07:12 am-------29.96- 82.0 78.6----
2024-05-25 07:06 am-------29.96- 81.1 78.6----
2024-05-25 07:00 am-------29.96+0.04 79.9 78.6----
2024-05-25 06:54 am-------29.96- 79.5 78.6----
2024-05-25 06:48 am-------29.95- 79.3 78.6----
2024-05-25 06:42 am-------29.95- 79.2 78.6----
2024-05-25 06:36 am-------29.94- 78.6 78.6----
2024-05-25 06:30 am-------29.93- 78.3 78.6----
2024-05-25 06:24 am-------29.93- 78.1 78.6----
2024-05-25 06:18 am-------29.93- 77.9 78.6----
2024-05-25 06:12 am-------29.93- 77.9 78.6----
2024-05-25 06:06 am-------29.93- 77.7 78.6----
2024-05-25 06:00 am-------29.93+0.02 77.7 78.6----
2024-05-25 05:54 am-------29.93- 77.7 78.6----
2024-05-25 05:48 am-------29.92- 77.9 78.6----
2024-05-25 05:42 am-------29.92- 77.9 78.6----
2024-05-25 05:36 am-------29.91- 78.1 78.6----
2024-05-25 05:30 am-------29.91- 78.3 78.6----
2024-05-25 05:24 am-------29.91- 78.6 78.6----
2024-05-25 05:18 am-------29.91- 78.6 78.6----
2024-05-25 05:12 am-------29.92- 78.6 78.6----
2024-05-25 05:06 am-------29.92- 78.6 78.6----
2024-05-25 05:00 am-------29.92+0.00- 78.6----
2024-05-25 04:54 am-------29.92-- 78.6----
2024-05-25 04:48 am-------29.92- 79.2 78.6----
2024-05-25 04:42 am-------29.92- 79.2 78.6----
2024-05-25 04:36 am-------29.92- 79.2 78.6----
2024-05-25 04:30 am--------- 79.2 78.6----
2024-05-25 04:24 am--------- 79.2 78.6----
2024-05-25 04:18 am-------29.92- 79.2 78.6----
2024-05-25 04:12 am-------29.92- 79.2 78.6----
2024-05-25 04:06 am-------29.92- 79.0 78.6----
2024-05-25 04:00 am-------29.92+0.00- 78.6----
2024-05-25 03:54 am-------29.92-- 78.6----
2024-05-25 03:48 am-------29.92-- 78.6----
2024-05-25 03:42 am-------29.92-- 78.6----
2024-05-25 03:36 am-------29.91-- 78.6----
2024-05-25 03:30 am-------29.92- 79.2-----
2024-05-25 03:24 am-------29.92- 79.2-----
2024-05-25 03:18 am-------29.91-------
2024-05-25 03:12 am-------29.91-------
2024-05-25 03:06 am-------29.91-------
2024-05-25 03:00 am-------29.91-0.02 79.3 78.6----
2024-05-25 02:54 am-------29.91- 79.3 78.6----
2024-05-25 02:48 am-------29.91- 79.5 78.6----
2024-05-25 02:42 am-------29.91- 79.3 78.6----
2024-05-25 02:36 am-------29.91- 79.5 78.6----
2024-05-25 02:30 am-------29.92- 79.5 78.6----
2024-05-25 02:24 am-------29.92- 79.5 78.6----
2024-05-25 02:18 am-------29.92- 79.5 78.6----
2024-05-25 02:12 am-------29.92- 79.5 78.6----
2024-05-25 02:06 am-------29.92- 79.7 78.6----
2024-05-25 02:00 am-------29.92+0.00- 78.6----
2024-05-25 01:54 am-------29.92-- 78.6----
2024-05-25 01:48 am-------29.91- 79.5 78.6----
2024-05-25 01:42 am-------29.92- 79.7 78.6----
2024-05-25 01:36 am-------29.91- 79.7 78.6----
2024-05-25 01:30 am-------29.91- 79.7 78.6----
2024-05-25 01:24 am-------29.91- 79.5 78.6----
2024-05-25 01:18 am-------29.91- 79.7 78.6----
2024-05-25 01:12 am-------29.91- 79.7 78.6----
2024-05-25 01:06 am-------29.91- 79.7 78.6----
2024-05-25 01:00 am-------29.92-0.01 79.7 78.6----
2024-05-25 12:54 am-------29.92- 79.7 78.6----
2024-05-25 12:48 am-------29.93- 79.7 78.6----
2024-05-25 12:42 am-------29.93- 79.9 78.6----
2024-05-25 12:36 am-------29.93- 79.9 78.4----
2024-05-25 12:30 am-------29.93- 79.9 78.4----
2024-05-25 12:24 am-------29.93- 79.9 78.4----
2024-05-25 12:18 am-------29.93- 80.1 78.4----
2024-05-25 12:12 am-------29.93- 80.1 78.4----
2024-05-25 12:06 am-------29.93- 80.1 78.4----
2024-05-25 12:00 am-------29.93+0.02 80.1 78.4----
2024-05-24 11:54 pm-------29.92- 80.1 78.4----
2024-05-24 11:48 pm-------29.92- 80.1 78.4----
2024-05-24 11:42 pm-------29.92- 80.2 78.4----
2024-05-24 11:36 pm-------29.92- 80.2 78.4----
2024-05-24 11:30 pm-------29.92- 80.2 78.4----
2024-05-24 11:24 pm-------29.92- 80.2 78.4----
2024-05-24 11:18 pm-------29.92- 80.2 78.4----
2024-05-24 11:12 pm-------29.91- 80.1 78.4----
2024-05-24 11:06 pm-------29.91- 80.2 78.4----
2024-05-24 11:00 pm-------29.92+0.01 80.1 78.4----
2024-05-24 10:54 pm-------29.92- 80.1 78.4----
2024-05-24 10:48 pm-------29.92- 80.2 78.4----
2024-05-24 10:42 pm-------29.92- 80.2 78.4----
2024-05-24 10:36 pm-------29.92- 80.2 78.4----
2024-05-24 10:30 pm-------29.93- 80.2 78.4----
2024-05-24 10:24 pm-------29.93- 80.4 78.4----
2024-05-24 10:18 pm-------29.93- 80.4 78.4----
2024-05-24 10:12 pm-------29.93- 80.4 78.4----
2024-05-24 10:06 pm-------29.93- 80.4 78.4----
2024-05-24 10:00 pm-------29.93+0.04 80.4 78.4----
2024-05-24 09:54 pm-------29.93- 80.6 78.4----
2024-05-24 09:48 pm-------29.92- 80.6 78.4----
2024-05-24 09:42 pm-------29.91- 80.6 78.4----
2024-05-24 09:36 pm-------29.91- 80.6 78.4----
2024-05-24 09:30 pm-------29.91- 80.6 78.4----
2024-05-24 09:24 pm-------29.91- 80.6 78.4----
2024-05-24 09:18 pm-------29.90- 80.6 78.4----
2024-05-24 09:12 pm-------29.90- 80.8 78.4----
2024-05-24 09:06 pm-------29.91- 80.8 78.3----
2024-05-24 09:00 pm-------29.91+0.00 80.8 78.3----
2024-05-24 08:54 pm-------29.91- 81.0 78.3----
2024-05-24 08:48 pm-------29.91- 81.0 78.3----
2024-05-24 08:42 pm-------29.91- 81.1 78.3----
2024-05-24 08:36 pm-------29.91- 81.1 78.3----
2024-05-24 08:30 pm-------29.91- 81.1 78.3----
2024-05-24 08:24 pm-------29.91- 81.3 78.3----
2024-05-24 08:18 pm-------29.91- 81.5 78.3----
2024-05-24 08:12 pm-------29.91- 81.7 78.3----
2024-05-24 08:06 pm-------29.91- 81.7 78.4----
2024-05-24 08:00 pm-------29.91-0.01 81.9 78.4----
2024-05-24 07:54 pm-------29.91- 82.0 78.4----
2024-05-24 07:48 pm-------29.91- 82.4 78.4----
2024-05-24 07:42 pm-------29.91- 82.4 78.4----
2024-05-24 07:36 pm-------29.90- 82.6 78.6----
2024-05-24 07:30 pm-------29.90- 82.6 78.6----
2024-05-24 07:24 pm-------29.90- 82.6 78.6----
2024-05-24 07:18 pm-------29.90- 82.6 78.6----
2024-05-24 07:12 pm-------29.89- 82.6 78.6----
2024-05-24 07:06 pm-------29.90- 82.8 78.4----
2024-05-24 07:00 pm-------29.89-0.03 82.8 78.4----
2024-05-24 06:54 pm-------29.89- 82.8 78.4----
2024-05-24 06:48 pm-------29.89- 82.4 78.4----
2024-05-24 06:42 pm-------29.89- 82.4 78.4----
2024-05-24 06:36 pm-------29.89- 82.2 78.4----
2024-05-24 06:30 pm-------29.89- 82.0 78.4----
2024-05-24 06:24 pm-------29.90- 82.0 78.4----
2024-05-24 06:18 pm-------29.90- 82.4 78.4----
2024-05-24 06:12 pm-------29.90- 81.7 78.4----
2024-05-24 06:06 pm-------29.90- 82.0 78.4----
2024-05-24 06:00 pm-------29.90-0.04 81.9 78.6----
2024-05-24 05:54 pm-------29.90- 81.9 78.6----
2024-05-24 05:48 pm-------29.90- 82.0 78.6----
2024-05-24 05:42 pm-------29.91- 82.0 78.6----
2024-05-24 05:36 pm-------29.91- 81.9 78.8----
2024-05-24 05:30 pm-------29.91- 81.7 78.6----
2024-05-24 05:24 pm-------29.91- 81.7 78.6----
2024-05-24 05:18 pm-------29.91-- 78.8----
2024-05-24 05:12 pm-------29.91-- 78.8----
2024-05-24 05:06 pm-------29.91-- 78.8----
2024-05-24 05:00 pm-------29.91-0.04 82.2 78.8----
2024-05-24 04:54 pm-------29.91- 82.8 78.8----
2024-05-24 04:48 pm-------29.91- 82.8 78.8----
2024-05-24 04:42 pm-------29.92- 82.2 78.8----
2024-05-24 04:36 pm-------29.92- 82.2 78.8----
2024-05-24 04:30 pm-------29.92- 82.6 78.8----
2024-05-24 04:24 pm-------29.92- 82.8 78.8----
2024-05-24 04:18 pm-------29.92- 82.8 78.8----
2024-05-24 04:12 pm-------29.92- 81.9 78.8----
2024-05-24 04:06 pm-------29.93- 81.7 78.6----
2024-05-24 04:00 pm-------29.93-0.04 81.9 78.6----
2024-05-24 03:54 pm-------29.93- 81.9 78.6----
2024-05-24 03:48 pm-------29.93- 81.7 78.6----
2024-05-24 03:42 pm-------29.93- 82.2 78.6----
2024-05-24 03:36 pm-------29.93- 81.9 78.4----
2024-05-24 03:30 pm-------29.93- 81.5 78.4----
2024-05-24 03:24 pm-------29.93- 81.5 78.4----
2024-05-24 03:18 pm-------29.93- 81.5 78.4----
2024-05-24 03:12 pm-------29.93- 81.9 78.3----
2024-05-24 03:06 pm-------29.93- 81.7 78.4----
2024-05-24 03:00 pm-------29.94-0.03 81.7 78.4----
2024-05-24 02:54 pm-------29.93- 81.9 78.4----
2024-05-24 02:48 pm-------29.94- 81.9 78.4----
2024-05-24 02:42 pm-------29.95- 81.7 78.4----
2024-05-24 02:36 pm-------29.95- 81.5 78.4----
2024-05-24 02:30 pm-------29.95- 81.5 78.4----
2024-05-24 02:24 pm-------29.95- 81.5 78.4----
2024-05-24 02:18 pm-------29.95- 81.7 78.4----
2024-05-24 02:12 pm-------29.96- 81.5 78.6----
2024-05-24 02:06 pm-------29.95- 81.9 78.6----
2024-05-24 02:00 pm-------29.96-0.01 81.9 78.6----
2024-05-24 01:54 pm-------29.96- 81.7 78.6----
2024-05-24 01:48 pm-------29.96- 81.7 78.6----
2024-05-24 01:42 pm-------29.96- 81.3 78.6----
2024-05-24 01:36 pm-------29.96- 81.5 78.6----
2024-05-24 01:30 pm-------29.96- 81.9 78.6----
2024-05-24 01:24 pm-------29.96- 81.3 78.6----
2024-05-24 01:18 pm-------29.96- 81.7 78.6----
2024-05-24 01:12 pm-------29.96- 81.3 78.8----
2024-05-24 01:06 pm-------29.96- 81.3 78.8----
2024-05-24 01:00 pm-------29.96+0.00 81.1 78.6----
2024-05-24 12:54 pm-------29.96- 81.5 78.8----
2024-05-24 12:48 pm-------29.96- 81.5 78.8----
2024-05-24 12:42 pm-------29.96- 81.5 78.6----
2024-05-24 12:36 pm-------29.96- 81.7 78.6----
2024-05-24 12:30 pm-------29.96- 81.1 78.4----
2024-05-24 12:24 pm-------29.96- 81.3 78.4----
2024-05-24 12:18 pm-------29.96- 81.1 78.3----
2024-05-24 12:12 pm-------29.96- 81.5 78.4----
2024-05-24 12:06 pm-------29.96- 81.0 78.6----
2024-05-24 12:00 pm-------29.97-0.01 81.0 78.6----
2024-05-24 11:54 am-------29.96- 80.8 78.6----